| time (UTC) | temp C | wind direction | speed KPH | gust KPH | rain 1hr cm | rain 24hr cm | rain mn cm | humidity % | barometer mb |
| 20260906204809 | 33 | 155 | 24.1 | 43.5 | 0.00 | 0.00 | 0.00 | 41 | 1014.9 |
| 20260906204508 | 33 | 193 | 22.5 | 41.8 | 0.00 | 0.00 | 0.00 | 43 | 1015.0 |
| 20260906204158 | 33 | 186 | 20.9 | 46.7 | 0.00 | 0.00 | 0.00 | 43 | 1015.1 |
| 20260906203851 | 33 | 177 | 22.5 | 46.7 | 0.00 | 0.00 | 0.00 | 43 | 1015.1 |
| 20260906203119 | 33 | 190 | 24.1 | 46.7 | 0.00 | 0.00 | 0.00 | 43 | 1015.1 |
| 20260906202808 | 33 | 176 | 22.5 | 46.7 | 0.00 | 0.00 | 0.00 | 42 | 1015.2 |
| 20260906202037 | 33 | 160 | 22.5 | 38.6 | 0.00 | 0.00 | 0.00 | 41 | 1015.3 |
| 20260906201724 | 33 | 184 | 20.9 | 41.8 | 0.00 | 0.00 | 0.00 | 42 | 1015.3 |
| 20260906201416 | 33 | 165 | 20.9 | 41.8 | 0.00 | 0.00 | 0.00 | 42 | 1015.4 |
| 20260906201115 | 33 | 155 | 24.1 | 41.8 | 0.00 | 0.00 | 0.00 | 42 | 1015.4 |
| 20260906200809 | 33 | 162 | 24.1 | 49.9 | 0.00 | 0.00 | 0.00 | 43 | 1015.5 |
| 20260906200512 | 33 | 169 | 25.7 | 49.9 | 0.00 | 0.00 | 0.00 | 43 | 1015.5 |
| 20260906200214 | 33 | 188 | 25.7 | 49.9 | 0.00 | 0.00 | 0.00 | 43 | 1015.5 |
| 20260906195915 | 33 | 167 | 27.4 | 49.9 | 0.00 | 0.00 | 0.00 | 43 | 1015.6 |
| 20260906195612 | 33 | 166 | 25.7 | 49.9 | 0.00 | 0.00 | 0.00 | 44 | 1015.6 |
| 20260906195314 | 33 | 165 | 22.5 | 49.9 | 0.00 | 0.00 | 0.00 | 43 | 1015.5 |
| 20260906195010 | 33 | 173 | 22.5 | 49.9 | 0.00 | 0.00 | 0.00 | 44 | 1015.8 |
| 20260906194700 | 32 | 169 | 20.9 | 38.6 | 0.00 | 0.00 | 0.00 | 46 | 1015.8 |
| 20260906194402 | 32 | 171 | 20.9 | 38.6 | 0.00 | 0.00 | 0.00 | 46 | 1015.7 |
| 20260906194106 | 32 | 159 | 22.5 | 38.6 | 0.00 | 0.00 | 0.00 | 46 | 1015.8 |
| 20260906193754 | 32 | 175 | 22.5 | 40.2 | 0.00 | 0.00 | 0.00 | 46 | 1015.8 |
| 20260906193042 | 32 | 184 | 24.1 | 40.2 | 0.00 | 0.00 | 0.00 | 48 | 1016.0 |
| 20260906192730 | 31 | 186 | 25.7 | 45.1 | 0.00 | 0.00 | 0.00 | 48 | 1016.1 |
| 20260906192426 | 31 | 171 | 22.5 | 45.1 | 0.00 | 0.00 | 0.00 | 48 | 1016.0 |
| 20260906192128 | 32 | 163 | 20.9 | 45.1 | 0.00 | 0.00 | 0.00 | 47 | 1016.1 |
| 20260906191822 | 32 | 187 | 19.3 | 45.1 | 0.00 | 0.00 | 0.00 | 46 | 1016.0 |
| 20260906191511 | 32 | 171 | 19.3 | 45.1 | 0.00 | 0.00 | 0.00 | 47 | 1016.1 |
| 20260906191202 | 31 | 147 | 22.5 | 45.1 | 0.00 | 0.00 | 0.00 | 47 | 1016.2 |
| 20260906190850 | 31 | 169 | 22.5 | 45.1 | 0.00 | 0.00 | 0.00 | 47 | 1016.1 |
| 20260906190542 | 31 | 171 | 24.1 | 45.1 | 0.00 | 0.00 | 0.00 | 48 | 1016.2 |
| 20260906185813 | 31 | 162 | 22.5 | 45.1 | 0.00 | 0.00 | 0.00 | 47 | 1016.3 |
| 20260906185515 | 31 | 167 | 22.5 | 45.1 | 0.00 | 0.00 | 0.00 | 48 | 1016.3 |
| 20260906185211 | 31 | 159 | 24.1 | 45.1 | 0.00 | 0.00 | 0.00 | 48 | 1016.4 |
| 20260906184911 | 31 | 159 | 22.5 | 45.1 | 0.00 | 0.00 | 0.00 | 49 | 1016.4 |
| 20260906184601 | 31 | 163 | 20.9 | 43.5 | 0.00 | 0.00 | 0.00 | 48 | 1016.4 |
| 20260906184259 | 31 | 192 | 17.7 | 38.6 | 0.00 | 0.00 | 0.00 | 49 | 1016.3 |
| 20260906183954 | 31 | 164 | 17.7 | 32.2 | 0.00 | 0.00 | 0.00 | 49 | 1016.2 |
| 20260906182755 | 31 | 162 | 22.5 | 40.2 | 0.00 | 0.00 | 0.00 | 52 | 1016.5 |
| 20260906182457 | 31 | 163 | 20.9 | 40.2 | 0.00 | 0.00 | 0.00 | 50 | 1016.7 |
| 20260906182150 | 31 | 178 | 19.3 | 40.2 | 0.00 | 0.00 | 0.00 | 51 | 1016.5 |
| 20260906181850 | 31 | 176 | 17.7 | 35.4 | 0.00 | 0.00 | 0.00 | 52 | 1016.6 |
| 20260906181541 | 30 | 166 | 19.3 | 40.2 | 0.00 | 0.00 | 0.00 | 52 | 1016.7 |
| 20260906180828 | 30 | 163 | 22.5 | 40.2 | 0.00 | 0.00 | 0.00 | 51 | 1016.9 |
| 20260906180515 | 30 | 171 | 20.9 | 40.2 | 0.00 | 0.00 | 0.00 | 51 | 1016.9 |
| 20260906180218 | 30 | 154 | 19.3 | 40.2 | 0.00 | 0.00 | 0.00 | 53 | 1016.9 |
| 20260906175921 | 30 | 170 | 19.3 | 40.2 | 0.00 | 0.00 | 0.00 | 52 | 1017.0 |
| 20260906175622 | 30 | 168 | 17.7 | 37.0 | 0.00 | 0.00 | 0.00 | 52 | 1017.0 |
| 20260906175321 | 30 | 165 | 17.7 | 37.0 | 0.00 | 0.00 | 0.00 | 53 | 1017.1 |
| 20260906175014 | 30 | 170 | 19.3 | 37.0 | 0.00 | 0.00 | 0.00 | 53 | 1017.1 |
| 20260906174717 | 30 | 177 | 17.7 | 37.0 | 0.00 | 0.00 | 0.00 | 53 | 1017.3 |
| 20260906174420 | 30 | 158 | 17.7 | 35.4 | 0.00 | 0.00 | 0.00 | 53 | 1017.3 |
| 20260906174110 | 30 | 185 | 17.7 | 32.2 | 0.00 | 0.00 | 0.00 | 53 | 1017.4 |
| 20260906173354 | 30 | 159 | 14.5 | 30.6 | 0.00 | 0.00 | 0.00 | 54 | 1017.5 |
| 20260906173042 | 30 | 154 | 14.5 | 29.0 | 0.00 | 0.00 | 0.00 | 55 | 1017.5 |
| 20260906172317 | 29 | 167 | 17.7 | 37.0 | 0.00 | 0.00 | 0.00 | 56 | 1017.6 |
| 20260906172012 | 29 | 165 | 17.7 | 37.0 | 0.00 | 0.00 | 0.00 | 56 | 1017.6 |
| 20260906171659 | 29 | 165 | 19.3 | 37.0 | 0.00 | 0.00 | 0.00 | 56 | 1017.8 |
| 20260906171345 | 28 | 160 | 19.3 | 37.0 | 0.00 | 0.00 | 0.00 | 57 | 1017.7 |
| 20260906170617 | 28 | 178 | 17.7 | 32.2 | 0.00 | 0.00 | 0.00 | 56 | 1017.9 |
| 20260906170305 | 28 | 169 | 17.7 | 32.2 | 0.00 | 0.00 | 0.00 | 56 | 1017.9 |
| 20260906170005 | 29 | 173 | 14.5 | 30.6 | 0.00 | 0.00 | 0.00 | 56 | 1017.8 |
| 20260906164830 | 28 | 157 | 12.9 | 29.0 | 0.00 | 0.00 | 0.00 | 58 | 1017.8 |
| 20260906164526 | 28 | 166 | 12.9 | 29.0 | 0.00 | 0.00 | 0.00 | 58 | 1017.8 |
| 20260906164220 | 28 | 168 | 12.9 | 29.0 | 0.00 | 0.00 | 0.00 | 58 | 1018.0 |
| 20260906163909 | 28 | 166 | 12.9 | 29.0 | 0.00 | 0.00 | 0.00 | 59 | 1017.9 |
| 20260906163559 | 28 | 163 | 12.9 | 29.0 | 0.00 | 0.00 | 0.00 | 59 | 1018.0 |
| 20260906163259 | 28 | 178 | 11.3 | 24.1 | 0.00 | 0.00 | 0.00 | 59 | 1018.0 |
| 20260906162948 | 28 | 165 | 8.0 | 24.1 | 0.00 | 0.00 | 0.00 | 61 | 1018.0 |
| 20260906162646 | 27 | 167 | 9.7 | 24.1 | 0.00 | 0.00 | 0.00 | 62 | 1018.1 |
| 20260906162348 | 27 | 163 | 11.3 | 24.1 | 0.00 | 0.00 | 0.00 | 62 | 1018.1 |
| 20260906162038 | 27 | 165 | 12.9 | 24.1 | 0.00 | 0.00 | 0.00 | 63 | 1018.2 |
| 20260906161733 | 27 | 161 | 12.9 | 24.1 | 0.00 | 0.00 | 0.00 | 63 | 1018.3 |
| 20260906161424 | 27 | 163 | 12.9 | 24.1 | 0.00 | 0.00 | 0.00 | 63 | 1018.2 |
| 20260906161127 | 27 | 165 | 12.9 | 20.9 | 0.00 | 0.00 | 0.00 | 63 | 1018.2 |
| 20260906160826 | 27 | 166 | 11.3 | 20.9 | 0.00 | 0.00 | 0.00 | 63 | 1018.3 |
| 20260906160526 | 27 | 167 | 9.7 | 20.9 | 0.00 | 0.00 | 0.00 | 62 | 1018.2 |
| 20260906160216 | 27 | 163 | 8.0 | 20.9 | 0.00 | 0.00 | 0.00 | 62 | 1018.2 |
| 20260906155916 | 27 | 154 | 6.4 | 19.3 | 0.00 | 0.00 | 0.00 | 62 | 1018.1 |
| 20260906155605 | 27 | 145 | 6.4 | 16.1 | 0.00 | 0.00 | 0.00 | 63 | 1018.2 |
| 20260906155251 | 27 | 142 | 6.4 | 16.1 | 0.00 | 0.00 | 0.00 | 63 | 1018.3 |
| 20260906154945 | 27 | 132 | 4.8 | 16.1 | 0.00 | 0.00 | 0.00 | 63 | 1018.2 |
| 20260906154214 | 27 | 128 | 4.8 | 16.1 | 0.00 | 0.00 | 0.00 | 63 | 1018.2 |
| 20260906153905 | 27 | 128 | 6.4 | 16.1 | 0.00 | 0.00 | 0.00 | 64 | 1018.1 |
| 20260906153600 | 26 | 115 | 4.8 | 12.9 | 0.00 | 0.00 | 0.00 | 65 | 1018.1 |
| 20260906153303 | 26 | 115 | 4.8 | 12.9 | 0.00 | 0.00 | 0.00 | 66 | 1018.1 |
| 20260906152951 | 26 | 116 | 4.8 | 12.9 | 0.00 | 0.00 | 0.00 | 66 | 1018.1 |
| 20260906152649 | 26 | 116 | 3.2 | 11.3 | 0.00 | 0.00 | 0.00 | 66 | 1018.1 |
| 20260906152340 | 26 | 117 | 3.2 | 9.7 | 0.00 | 0.00 | 0.00 | 66 | 1018.1 |
| 20260906152042 | 26 | 117 | 3.2 | 9.7 | 0.00 | 0.00 | 0.00 | 66 | 1018.1 |
| 20260906151741 | 26 | 117 | 3.2 | 9.7 | 0.00 | 0.00 | 0.00 | 67 | 1018.1 |
| 20260906151438 | 26 | 117 | 3.2 | 14.5 | 0.00 | 0.00 | 0.00 | 68 | 1018.0 |
| 20260906151128 | 25 | 117 | 3.2 | 14.5 | 0.00 | 0.00 | 0.00 | 68 | 1017.9 |
| 20260906150822 | 25 | 117 | 4.8 | 14.5 | 0.00 | 0.00 | 0.00 | 69 | 1017.9 |
| 20260906150515 | 25 | 117 | 6.4 | 14.5 | 0.00 | 0.00 | 0.00 | 69 | 1017.8 |
| 20260906145316 | 25 | 123 | 3.2 | 11.3 | 0.00 | 0.00 | 0.00 | 72 | 1017.7 |
| 20260906145019 | 24 | 123 | 3.2 | 11.3 | 0.00 | 0.00 | 0.00 | 73 | 1017.8 |
| 20260906144714 | 23 | 123 | 3.2 | 11.3 | 0.00 | 0.00 | 0.00 | 74 | 1017.7 |
| 20260906143937 | 23 | 123 | 6.4 | 12.9 | 0.00 | 0.00 | 0.00 | 74 | 1017.7 |
| 20260906143623 | 23 | 123 | 6.4 | 12.9 | 0.00 | 0.00 | 0.00 | 74 | 1017.9 |
| 20260906143312 | 23 | 123 | 6.4 | 14.5 | 0.00 | 0.00 | 0.00 | 74 | 1017.9 |
| 20260906143008 | 23 | 125 | 6.4 | 14.5 | 0.00 | 0.00 | 0.00 | 75 | 1018.0 |
| 20260906142700 | 23 | 126 | 6.4 | 14.5 | 0.00 | 0.00 | 0.00 | 75 | 1018.1 |
| 20260906142358 | 23 | 127 | 8.0 | 14.5 | 0.00 | 0.00 | 0.00 | 75 | 1018.1 |
| 20260906142048 | 23 | 127 | 8.0 | 14.5 | 0.00 | 0.00 | 0.00 | 75 | 1018.1 |
| 20260906141748 | 23 | 128 | 8.0 | 14.5 | 0.00 | 0.00 | 0.00 | 76 | 1018.2 |
| 20260906141447 | 23 | 133 | 8.0 | 12.9 | 0.00 | 0.00 | 0.00 | 76 | 1018.2 |
| 20260906141138 | 23 | 146 | 8.0 | 12.9 | 0.00 | 0.00 | 0.00 | 76 | 1018.2 |
| 20260906135948 | 23 | 155 | 6.4 | 12.9 | 0.00 | 0.00 | 0.00 | 76 | 1018.1 |
| 20260906135645 | 23 | 157 | 6.4 | 12.9 | 0.00 | 0.00 | 0.00 | 77 | 1018.1 |
| 20260906135338 | 23 | 164 | 6.4 | 11.3 | 0.00 | 0.00 | 0.00 | 77 | 1018.1 |
| 20260906135040 | 23 | 165 | 4.8 | 9.7 | 0.00 | 0.00 | 0.00 | 77 | 1018.1 |
| 20260906134313 | 22 | 166 | 6.4 | 9.7 | 0.00 | 0.00 | 0.00 | 79 | 1017.9 |
| 20260906133556 | 22 | 167 | 6.4 | 11.3 | 0.00 | 0.00 | 0.00 | 80 | 1018.0 |
| 20260906132357 | 21 | 170 | 4.8 | 11.3 | 0.00 | 0.00 | 0.00 | 83 | 1017.9 |
| 20260906132045 | 21 | 170 | 6.4 | 11.3 | 0.00 | 0.00 | 0.00 | 83 | 1017.7 |
| 20260906131747 | 21 | 170 | 6.4 | 11.3 | 0.00 | 0.00 | 0.00 | 83 | 1017.8 |
| 20260906131446 | 21 | 170 | 6.4 | 11.3 | 0.00 | 0.00 | 0.00 | 83 | 1017.8 |
| 20260906131143 | 21 | 171 | 6.4 | 9.7 | 0.00 | 0.00 | 0.00 | 83 | 1017.8 |
| 20260906130840 | 20 | 173 | 4.8 | 9.7 | 0.00 | 0.00 | 0.00 | 83 | 1017.7 |
| 20260906130538 | 20 | 173 | 3.2 | 9.7 | 0.00 | 0.00 | 0.00 | 83 | 1017.6 |
| 20260906130227 | 20 | 173 | 0.0 | 6.4 | 0.00 | 0.00 | 0.00 | 83 | 1017.5 |
| 20260906125924 | 20 | 173 | 0.0 | 6.4 | 0.00 | 0.00 | 0.00 | 83 | 1017.5 |
| 20260906125627 | 20 | 173 | 0.0 | 0.0 | 0.00 | 0.00 | 0.00 | 83 | 1017.4 |
| 20260906125314 | 20 | 173 | 0.0 | 0.0 | 0.00 | 0.00 | 0.00 | 83 | 1017.2 |
| 20260906125000 | 20 | 173 | 0.0 | 0.0 | 0.00 | 0.00 | 0.00 | 83 | 1017.2 |
| 20260906124648 | 21 | 173 | 0.0 | 0.0 | 0.00 | 0.00 | 0.00 | 83 | 1017.3 |
| 20260906124340 | 21 | 173 | 0.0 | 0.0 | 0.00 | 0.00 | 0.00 | 82 | 1017.3 |
| 20260906124035 | 21 | 173 | 0.0 | 0.0 | 0.00 | 0.00 | 0.00 | 82 | 1017.2 |
| 20260906123322 | 21 | 173 | 0.0 | 0.0 | 0.00 | 0.00 | 0.00 | 83 | 1016.9 |
| 20260906122200 | 21 | 173 | 0.0 | 0.0 | 0.00 | 0.00 | 0.00 | 82 | 1016.8 |
| 20260906121851 | 21 | 173 | 0.0 | 0.0 | 0.00 | 0.00 | 0.00 | 82 | 1016.9 |
| 20260906121552 | 21 | 173 | 0.0 | 0.0 | 0.00 | 0.00 | 0.00 | 82 | 1016.9 |
| 20260906121246 | 21 | 173 | 0.0 | 0.0 | 0.00 | 0.00 | 0.00 | 82 | 1016.9 |
| 20260906120938 | 21 | 173 | 0.0 | 0.0 | 0.00 | 0.00 | 0.00 | 82 | 1016.9 |
| 20260906120630 | 21 | 173 | 0.0 | 0.0 | 0.00 | 0.00 | 0.00 | 82 | 1016.9 |
| 20260906120327 | 21 | 173 | 0.0 | 0.0 | 0.00 | 0.00 | 0.00 | 81 | 1016.8 |
| 20260906120030 | 21 | 173 | 0.0 | 0.0 | 0.00 | 0.00 | 0.00 | 81 | 1016.8 |
| 20260906115257 | 21 | 173 | 0.0 | 0.0 | 0.00 | 0.00 | 0.00 | 81 | 1016.7 |
| 20260906114536 | 21 | 173 | 0.0 | 0.0 | 0.00 | 0.00 | 0.00 | 81 | 1016.7 |
| 20260906114232 | 21 | 173 | 0.0 | 0.0 | 0.00 | 0.00 | 0.00 | 81 | 1016.7 |
| 20260906113920 | 21 | 173 | 0.0 | 0.0 | 0.00 | 0.00 | 0.00 | 80 | 1016.6 |
| 20260906113622 | 21 | 173 | 0.0 | 0.0 | 0.00 | 0.00 | 0.00 | 80 | 1016.6 |
| 20260906113318 | 21 | 173 | 0.0 | 0.0 | 0.00 | 0.00 | 0.00 | 80 | 1016.4 |
| 20260906113019 | 21 | 173 | 0.0 | 0.0 | 0.00 | 0.00 | 0.00 | 80 | 1016.4 |
| 20260906112721 | 21 | 173 | 0.0 | 0.0 | 0.00 | 0.00 | 0.00 | 80 | 1016.3 |
| 20260906112412 | 21 | 173 | 0.0 | 0.0 | 0.00 | 0.00 | 0.00 | 79 | 1016.3 |
| 20260906112112 | 21 | 173 | 0.0 | 0.0 | 0.00 | 0.00 | 0.00 | 79 | 1016.3 |
| 20260906111808 | 21 | 173 | 0.0 | 0.0 | 0.00 | 0.00 | 0.00 | 79 | 1016.3 |
| 20260906111028 | 21 | 173 | 0.0 | 0.0 | 0.00 | 0.00 | 0.00 | 78 | 1016.1 |
| 20260906110721 | 21 | 173 | 0.0 | 0.0 | 0.00 | 0.00 | 0.00 | 78 | 1016.1 |
| 20260906110417 | 21 | 173 | 0.0 | 0.0 | 0.00 | 0.00 | 0.00 | 77 | 1016.2 |
| 20260906110107 | 21 | 173 | 0.0 | 0.0 | 0.00 | 0.00 | 0.00 | 77 | 1016.1 |
| 20260906105802 | 21 | 173 | 0.0 | 0.0 | 0.00 | 0.00 | 0.00 | 77 | 1016.1 |
| 20260906105452 | 21 | 173 | 0.0 | 0.0 | 0.00 | 0.00 | 0.00 | 76 | 1016.0 |
| 20260906105151 | 21 | 173 | 0.0 | 0.0 | 0.00 | 0.00 | 0.00 | 76 | 1016.1 |
| 20260906104842 | 21 | 173 | 0.0 | 0.0 | 0.00 | 0.00 | 0.00 | 76 | 1016.1 |
| 20260906104129 | 21 | 173 | 0.0 | 0.0 | 0.00 | 0.00 | 0.00 | 75 | 1016.1 |
| 20260906103822 | 21 | 173 | 0.0 | 0.0 | 0.00 | 0.00 | 0.00 | 75 | 1016.2 |
| 20260906103524 | 21 | 173 | 0.0 | 0.0 | 0.00 | 0.00 | 0.00 | 75 | 1016.2 |
| 20260906103227 | 21 | 173 | 0.0 | 0.0 | 0.00 | 0.00 | 0.00 | 75 | 1016.3 |
| 20260906102926 | 21 | 173 | 0.0 | 0.0 | 0.00 | 0.00 | 0.00 | 75 | 1016.3 |
| 20260906101751 | 21 | 173 | 0.0 | 0.0 | 0.00 | 0.00 | 0.00 | 74 | 1016.3 |
| 20260906101454 | 21 | 173 | 0.0 | 0.0 | 0.00 | 0.00 | 0.00 | 75 | 1016.2 |
| 20260906101142 | 21 | 173 | 0.0 | 0.0 | 0.00 | 0.00 | 0.00 | 74 | 1016.2 |
| 20260906100831 | 21 | 173 | 0.0 | 0.0 | 0.00 | 0.00 | 0.00 | 74 | 1016.3 |
| 20260906100534 | 21 | 173 | 0.0 | 0.0 | 0.00 | 0.00 | 0.00 | 74 | 1016.3 |
| 20260906100228 | 21 | 173 | 0.0 | 1.6 | 0.00 | 0.00 | 0.00 | 74 | 1016.4 |
| 20260906095930 | 21 | 173 | 0.0 | 4.8 | 0.00 | 0.00 | 0.00 | 74 | 1016.5 |
| 20260906095619 | 21 | 173 | 0.0 | 4.8 | 0.00 | 0.00 | 0.00 | 74 | 1016.4 |
| 20260906095309 | 21 | 173 | 1.6 | 4.8 | 0.00 | 0.00 | 0.00 | 74 | 1016.2 |
| 20260906094958 | 22 | 173 | 1.6 | 4.8 | 0.00 | 0.00 | 0.00 | 74 | 1016.1 |
| 20260906094646 | 22 | 173 | 0.0 | 4.8 | 0.00 | 0.00 | 0.00 | 74 | 1016.2 |
| 20260906094333 | 22 | 173 | 0.0 | 1.6 | 0.00 | 0.00 | 0.00 | 73 | 1016.0 |
| 20260906094021 | 22 | 173 | 0.0 | 1.6 | 0.00 | 0.00 | 0.00 | 72 | 1016.1 |
| 20260906093721 | 22 | 173 | 0.0 | 1.6 | 0.00 | 0.00 | 0.00 | 72 | 1016.0 |
| 20260906093417 | 22 | 173 | 0.0 | 1.6 | 0.00 | 0.00 | 0.00 | 72 | 1015.9 |
| 20260906092646 | 22 | 173 | 0.0 | 0.0 | 0.00 | 0.00 | 0.00 | 71 | 1015.7 |
| 20260906092345 | 22 | 173 | 0.0 | 0.0 | 0.00 | 0.00 | 0.00 | 71 | 1015.7 |
| 20260906092042 | 22 | 173 | 0.0 | 0.0 | 0.00 | 0.00 | 0.00 | 71 | 1015.7 |
| 20260906091734 | 22 | 173 | 0.0 | 0.0 | 0.00 | 0.00 | 0.00 | 71 | 1015.6 |
| 20260906091431 | 22 | 173 | 0.0 | 0.0 | 0.00 | 0.00 | 0.00 | 70 | 1015.6 |
| 20260906091128 | 22 | 173 | 0.0 | 0.0 | 0.00 | 0.00 | 0.00 | 70 | 1015.6 |
| 20260906090815 | 22 | 173 | 0.0 | 0.0 | 0.00 | 0.00 | 0.00 | 70 | 1015.6 |
| 20260906085615 | 22 | 173 | 0.0 | 0.0 | 0.00 | 0.00 | 0.00 | 70 | 1015.4 |
| 20260906085315 | 22 | 173 | 0.0 | 0.0 | 0.00 | 0.00 | 0.00 | 69 | 1015.5 |
| 20260906085011 | 22 | 173 | 1.6 | 0.0 | 0.00 | 0.00 | 0.00 | 70 | 1015.4 |
| 20260906084703 | 22 | 173 | 1.6 | 6.4 | 0.00 | 0.00 | 0.00 | 70 | 1015.4 |
| 20260906084357 | 22 | 173 | 1.6 | 6.4 | 0.00 | 0.00 | 0.00 | 69 | 1015.5 |
| 20260906084052 | 22 | 173 | 1.6 | 6.4 | 0.00 | 0.00 | 0.00 | 70 | 1015.5 |
| 20260906083741 | 22 | 173 | 1.6 | 6.4 | 0.00 | 0.00 | 0.00 | 69 | 1015.6 |
| 20260906083429 | 22 | 173 | 1.6 | 6.4 | 0.00 | 0.00 | 0.00 | 69 | 1015.5 |
| 20260906082702 | 22 | 173 | 3.2 | 8.0 | 0.00 | 0.00 | 0.00 | 68 | 1015.4 |
| 20260906082349 | 23 | 173 | 3.2 | 8.0 | 0.00 | 0.00 | 0.00 | 68 | 1015.4 |
| 20260906082049 | 23 | 173 | 4.8 | 11.3 | 0.00 | 0.00 | 0.00 | 68 | 1015.4 |
| 20260906081737 | 23 | 173 | 4.8 | 11.3 | 0.00 | 0.00 | 0.00 | 67 | 1015.5 |
| 20260906081433 | 23 | 173 | 4.8 | 11.3 | 0.00 | 0.00 | 0.00 | 68 | 1015.5 |
| 20260906080720 | 23 | 173 | 6.4 | 11.3 | 0.00 | 0.00 | 0.00 | 67 | 1015.4 |
| 20260906080408 | 23 | 173 | 8.0 | 11.3 | 0.00 | 0.00 | 0.00 | 68 | 1015.4 |
| 20260906075640 | 23 | 173 | 6.4 | 9.7 | 0.00 | 0.00 | 0.00 | 69 | 1015.5 |
| 20260906075341 | 23 | 173 | 6.4 | 9.7 | 0.00 | 0.00 | 0.00 | 69 | 1015.5 |
| 20260906074613 | 23 | 173 | 4.8 | 9.7 | 0.00 | 0.00 | 0.00 | 70 | 1015.7 |
| 20260906074302 | 23 | 173 | 4.8 | 9.7 | 0.00 | 0.00 | 0.00 | 70 | 1015.7 |
| 20260906074000 | 23 | 173 | 6.4 | 9.7 | 0.00 | 0.00 | 0.00 | 71 | 1015.6 |
| 20260906073659 | 23 | 173 | 6.4 | 9.7 | 0.00 | 0.00 | 0.00 | 71 | 1015.6 |
| 20260906073352 | 23 | 173 | 6.4 | 9.7 | 0.00 | 0.00 | 0.00 | 71 | 1015.5 |
| 20260906073054 | 23 | 173 | 4.8 | 9.7 | 0.00 | 0.00 | 0.00 | 71 | 1015.5 |
| 20260906072757 | 23 | 173 | 4.8 | 9.7 | 0.00 | 0.00 | 0.00 | 71 | 1015.6 |
| 20260906072501 | 23 | 173 | 3.2 | 6.4 | 0.00 | 0.00 | 0.00 | 71 | 1015.5 |
| 20260906072200 | 23 | 173 | 3.2 | 6.4 | 0.00 | 0.00 | 0.00 | 71 | 1015.6 |
| 20260906071422 | 23 | 173 | 0.0 | 4.8 | 0.00 | 0.00 | 0.00 | 71 | 1015.6 |
| 20260906071117 | 23 | 173 | 0.0 | 4.8 | 0.00 | 0.00 | 0.00 | 70 | 1015.7 |
| 20260906070808 | 23 | 173 | 0.0 | 6.4 | 0.00 | 0.00 | 0.00 | 70 | 1015.7 |
| 20260906070049 | 23 | 173 | 0.0 | 6.4 | 0.00 | 0.00 | 0.00 | 69 | 1015.7 |
| 20260906065740 | 23 | 173 | 1.6 | 6.4 | 0.00 | 0.00 | 0.00 | 69 | 1015.7 |
| 20260906065440 | 23 | 173 | 1.6 | 6.4 | 0.00 | 0.00 | 0.00 | 69 | 1015.7 |
| 20260906065127 | 23 | 173 | 0.0 | 6.4 | 0.00 | 0.00 | 0.00 | 69 | 1015.6 |
| 20260906064829 | 23 | 173 | 0.0 | 6.4 | 0.00 | 0.00 | 0.00 | 69 | 1015.4 |
| 20260906064517 | 23 | 173 | 0.0 | 0.0 | 0.00 | 0.00 | 0.00 | 69 | 1015.2 |
| 20260906064213 | 23 | 173 | 1.6 | 9.7 | 0.00 | 0.00 | 0.00 | 69 | 1015.2 |
| 20260906063910 | 23 | 173 | 3.2 | 9.7 | 0.00 | 0.00 | 0.00 | 69 | 1015.2 |
| 20260906063610 | 23 | 173 | 4.8 | 9.7 | 0.00 | 0.00 | 0.00 | 70 | 1015.2 |
| 20260906063312 | 23 | 173 | 4.8 | 9.7 | 0.00 | 0.00 | 0.00 | 70 | 1015.2 |
| 20260906063014 | 23 | 173 | 4.8 | 9.7 | 0.00 | 0.00 | 0.00 | 70 | 1015.1 |
| 20260906062705 | 23 | 173 | 4.8 | 8.0 | 0.00 | 0.00 | 0.00 | 70 | 1015.2 |
| 20260906062404 | 23 | 173 | 4.8 | 8.0 | 0.00 | 0.00 | 0.00 | 70 | 1015.3 |
| 20260906062055 | 23 | 173 | 4.8 | 8.0 | 0.00 | 0.00 | 0.00 | 70 | 1015.3 |
| 20260906061749 | 23 | 173 | 4.8 | 8.0 | 0.00 | 0.00 | 0.00 | 69 | 1015.4 |
| 20260906061016 | 23 | 173 | 3.2 | 6.4 | 0.00 | 0.00 | 0.00 | 68 | 1015.3 |
| 20260906060706 | 23 | 173 | 3.2 | 6.4 | 0.00 | 0.00 | 0.00 | 68 | 1015.2 |
| 20260906060400 | 24 | 173 | 3.2 | 6.4 | 0.00 | 0.00 | 0.00 | 68 | 1015.3 |
| 20260906055801 | 24 | 173 | 4.8 | 6.4 | 0.00 | 0.00 | 0.00 | 68 | 1015.2 |
| 20260906055501 | 24 | 173 | 4.8 | 6.4 | 0.00 | 0.00 | 0.00 | 68 | 1015.3 |
| 20260906055150 | 24 | 173 | 3.2 | 6.4 | 0.00 | 0.00 | 0.00 | 67 | 1015.4 |
| 20260906054841 | 24 | 173 | 3.2 | 11.3 | 0.00 | 0.00 | 0.00 | 67 | 1015.4 |
| 20260906054543 | 24 | 173 | 4.8 | 11.3 | 0.00 | 0.00 | 0.00 | 67 | 1015.3 |
| 20260906054243 | 24 | 173 | 6.4 | 11.3 | 0.00 | 0.00 | 0.00 | 67 | 1015.3 |
| 20260906053939 | 24 | 173 | 8.0 | 11.3 | 0.00 | 0.00 | 0.00 | 68 | 1015.3 |
| 20260906053637 | 24 | 173 | 8.0 | 11.3 | 0.00 | 0.00 | 0.00 | 68 | 1015.4 |
| 20260906053326 | 24 | 173 | 8.0 | 11.3 | 0.00 | 0.00 | 0.00 | 68 | 1015.3 |
| 20260906053026 | 24 | 173 | 8.0 | 11.3 | 0.00 | 0.00 | 0.00 | 69 | 1015.3 |
| 20260906052715 | 23 | 173 | 6.4 | 9.7 | 0.00 | 0.00 | 0.00 | 70 | 1015.3 |
| 20260906052414 | 23 | 173 | 6.4 | 9.7 | 0.00 | 0.00 | 0.00 | 70 | 1015.1 |
| 20260906052112 | 23 | 173 | 6.4 | 9.7 | 0.00 | 0.00 | 0.00 | 70 | 1015.1 |
| 20260906051804 | 23 | 173 | 4.8 | 9.7 | 0.00 | 0.00 | 0.00 | 70 | 1015.2 |
| 20260906051507 | 23 | 173 | 4.8 | 8.0 | 0.00 | 0.00 | 0.00 | 70 | 1015.3 |
| 20260906051204 | 23 | 173 | 6.4 | 8.0 | 0.00 | 0.00 | 0.00 | 69 | 1015.3 |
| 20260906050907 | 24 | 173 | 6.4 | 8.0 | 0.00 | 0.00 | 0.00 | 69 | 1015.2 |
| 20260906050554 | 24 | 173 | 6.4 | 8.0 | 0.00 | 0.00 | 0.00 | 68 | 1015.2 |
| 20260906050247 | 24 | 173 | 6.4 | 8.0 | 0.00 | 0.00 | 0.00 | 68 | 1015.0 |
| 20260906045949 | 24 | 173 | 6.4 | 8.0 | 0.00 | 0.00 | 0.00 | 67 | 1014.9 |
| 20260906044358 | 25 | 173 | 0.0 | 1.6 | 0.00 | 0.00 | 0.00 | 64 | 1015.0 |
| 20260906044101 | 25 | 173 | 1.6 | 0.0 | 0.00 | 0.00 | 0.00 | 64 | 1014.9 |
| 20260906043336 | 25 | 173 | 4.8 | 8.0 | 0.00 | 0.00 | 0.00 | 64 | 1014.8 |
| 20260906043034 | 26 | 173 | 4.8 | 8.0 | 0.00 | 0.00 | 0.00 | 63 | 1015.0 |
| 20260906042733 | 26 | 173 | 4.8 | 8.0 | 0.00 | 0.00 | 0.00 | 63 | 1015.0 |
| 20260906042008 | 26 | 173 | 6.4 | 9.7 | 0.00 | 0.00 | 0.00 | 62 | 1015.0 |
| 20260906041654 | 26 | 173 | 6.4 | 9.7 | 0.00 | 0.00 | 0.00 | 62 | 1015.0 |
| 20260906041347 | 26 | 173 | 6.4 | 11.3 | 0.00 | 0.00 | 0.00 | 62 | 1015.0 |
| 20260906041033 | 26 | 173 | 8.0 | 11.3 | 0.00 | 0.00 | 0.00 | 61 | 1015.0 |
| 20260906040724 | 26 | 173 | 6.4 | 11.3 | 0.00 | 0.00 | 0.00 | 61 | 1015.1 |
| 20260906040411 | 26 | 173 | 6.4 | 11.3 | 0.00 | 0.00 | 0.00 | 61 | 1015.1 |
| 20260906035213 | 26 | 173 | 9.7 | 16.1 | 0.00 | 0.00 | 0.00 | 60 | 1015.2 |
| 20260906034915 | 26 | 173 | 11.3 | 16.1 | 0.00 | 0.00 | 0.00 | 60 | 1015.2 |
| 20260906034616 | 26 | 173 | 9.7 | 16.1 | 0.00 | 0.00 | 0.00 | 60 | 1015.1 |
| 20260906034305 | 26 | 173 | 9.7 | 14.5 | 0.00 | 0.00 | 0.00 | 60 | 1015.0 |
| 20260906034009 | 26 | 173 | 9.7 | 14.5 | 0.00 | 0.00 | 0.00 | 60 | 1015.1 |
| 20260906033708 | 26 | 173 | 9.7 | 14.5 | 0.00 | 0.00 | 0.00 | 60 | 1015.2 |
| 20260906033358 | 26 | 173 | 9.7 | 14.5 | 0.00 | 0.00 | 0.00 | 60 | 1015.3 |
| 20260906033053 | 26 | 174 | 8.0 | 14.5 | 0.00 | 0.00 | 0.00 | 60 | 1015.2 |
| 20260906032744 | 26 | 174 | 8.0 | 14.5 | 0.00 | 0.00 | 0.00 | 60 | 1015.2 |
| 20260906032433 | 26 | 174 | 9.7 | 14.5 | 0.00 | 0.00 | 0.00 | 60 | 1015.0 |
| 20260906032124 | 27 | 174 | 9.7 | 14.5 | 0.00 | 0.00 | 0.00 | 60 | 1015.1 |
| 20260906031826 | 27 | 174 | 9.7 | 14.5 | 0.00 | 0.00 | 0.00 | 59 | 1015.2 |
| 20260906031516 | 27 | 175 | 8.0 | 14.5 | 0.00 | 0.00 | 0.00 | 59 | 1015.2 |
| 20260906031206 | 27 | 175 | 6.4 | 12.9 | 0.00 | 0.00 | 0.00 | 59 | 1015.2 |
| 20260906030901 | 27 | 175 | 4.8 | 12.9 | 0.00 | 0.00 | 0.00 | 58 | 1015.2 |
| 20260906030552 | 27 | 175 | 4.8 | 12.9 | 0.00 | 0.00 | 0.00 | 58 | 1015.3 |
| 20260906030248 | 27 | 175 | 4.8 | 11.3 | 0.00 | 0.00 | 0.00 | 58 | 1015.2 |
| 20260906025939 | 27 | 175 | 6.4 | 11.3 | 0.00 | 0.00 | 0.00 | 58 | 1015.1 |
| 20260906025635 | 27 | 175 | 6.4 | 11.3 | 0.00 | 0.00 | 0.00 | 58 | 1014.8 |
| 20260906025328 | 27 | 175 | 4.8 | 11.3 | 0.00 | 0.00 | 0.00 | 58 | 1014.7 |
| 20260906025017 | 27 | 175 | 3.2 | 9.7 | 0.00 | 0.00 | 0.00 | 58 | 1014.7 |
| 20260906024704 | 27 | 175 | 3.2 | 9.7 | 0.00 | 0.00 | 0.00 | 58 | 1014.6 |
| 20260906024401 | 27 | 175 | 4.8 | 9.7 | 0.00 | 0.00 | 0.00 | 58 | 1014.6 |
| 20260906023626 | 27 | 175 | 4.8 | 6.4 | 0.00 | 0.00 | 0.00 | 57 | 1014.5 |
| 20260906023326 | 27 | 175 | 3.2 | 6.4 | 0.00 | 0.00 | 0.00 | 57 | 1014.6 |
| 20260906023014 | 27 | 175 | 3.2 | 9.7 | 0.00 | 0.00 | 0.00 | 57 | 1014.5 |
| 20260906022712 | 27 | 175 | 3.2 | 9.7 | 0.00 | 0.00 | 0.00 | 56 | 1014.5 |
| 20260906022412 | 27 | 175 | 4.8 | 9.7 | 0.00 | 0.00 | 0.00 | 56 | 1014.4 |
| 20260906022113 | 28 | 175 | 4.8 | 9.7 | 0.00 | 0.00 | 0.00 | 56 | 1014.3 |
| 20260906021345 | 28 | 175 | 6.4 | 9.7 | 0.00 | 0.00 | 0.00 | 56 | 1014.3 |
| 20260906021044 | 28 | 175 | 6.4 | 8.0 | 0.00 | 0.00 | 0.00 | 56 | 1014.4 |
| 20260906020741 | 28 | 175 | 4.8 | 8.0 | 0.00 | 0.00 | 0.00 | 55 | 1014.2 |
| 20260906020441 | 28 | 175 | 6.4 | 8.0 | 0.00 | 0.00 | 0.00 | 55 | 1014.3 |
| 20260906020141 | 28 | 175 | 6.4 | 8.0 | 0.00 | 0.00 | 0.00 | 55 | 1014.1 |
| 20260906015843 | 28 | 175 | 6.4 | 8.0 | 0.00 | 0.00 | 0.00 | 55 | 1014.2 |
| 20260906015534 | 28 | 175 | 6.4 | 12.9 | 0.00 | 0.00 | 0.00 | 54 | 1014.2 |
| 20260906015230 | 28 | 175 | 6.4 | 12.9 | 0.00 | 0.00 | 0.00 | 54 | 1014.1 |
| 20260906014932 | 28 | 175 | 6.4 | 12.9 | 0.00 | 0.00 | 0.00 | 54 | 1014.0 |
| 20260906014636 | 28 | 175 | 8.0 | 12.9 | 0.00 | 0.00 | 0.00 | 54 | 1014.1 |
| 20260906014325 | 28 | 175 | 8.0 | 12.9 | 0.00 | 0.00 | 0.00 | 53 | 1014.0 |
| 20260906014023 | 29 | 175 | 8.0 | 12.9 | 0.00 | 0.00 | 0.00 | 53 | 1014.0 |
| 20260906013253 | 29 | 175 | 8.0 | 12.9 | 0.00 | 0.00 | 0.00 | 52 | 1013.9 |
| 20260906012952 | 29 | 175 | 8.0 | 12.9 | 0.00 | 0.00 | 0.00 | 52 | 1013.9 |
| 20260906012644 | 29 | 175 | 8.0 | 12.9 | 0.00 | 0.00 | 0.00 | 52 | 1013.9 |
| 20260906012336 | 30 | 175 | 8.0 | 11.3 | 0.00 | 0.00 | 0.00 | 51 | 1013.8 |
| 20260906011623 | 30 | 175 | 8.0 | 14.5 | 0.00 | 0.00 | 0.00 | 51 | 1013.7 |
| 20260906011321 | 30 | 175 | 8.0 | 14.5 | 0.00 | 0.00 | 0.00 | 50 | 1013.7 |
| 20260906011014 | 30 | 175 | 8.0 | 14.5 | 0.00 | 0.00 | 0.00 | 50 | 1013.7 |
| 20260906010709 | 30 | 175 | 8.0 | 14.5 | 0.00 | 0.00 | 0.00 | 50 | 1013.7 |
| 20260906005953 | 30 | 177 | 9.7 | 12.9 | 0.00 | 0.00 | 0.00 | 49 | 1013.7 |
| 20260906005645 | 30 | 177 | 9.7 | 24.1 | 0.00 | 0.00 | 0.00 | 49 | 1013.8 |
| 20260906005335 | 31 | 177 | 11.3 | 24.1 | 0.00 | 0.00 | 0.00 | 49 | 1013.7 |
| 20260906005034 | 31 | 177 | 11.3 | 24.1 | 0.00 | 0.00 | 0.00 | 48 | 1013.7 |
| 20260906004722 | 31 | 178 | 12.9 | 24.1 | 0.00 | 0.00 | 0.00 | 48 | 1013.7 |
| 20260906004419 | 31 | 184 | 12.9 | 24.1 | 0.00 | 0.00 | 0.00 | 48 | 1013.7 |
| 20260906004109 | 31 | 176 | 12.9 | 24.1 | 0.00 | 0.00 | 0.00 | 48 | 1013.6 |
| 20260906003808 | 31 | 173 | 12.9 | 22.5 | 0.00 | 0.00 | 0.00 | 48 | 1013.6 |
| 20260906003504 | 31 | 174 | 12.9 | 22.5 | 0.00 | 0.00 | 0.00 | 48 | 1013.6 |
| 20260906003151 | 31 | 176 | 12.9 | 30.6 | 0.00 | 0.00 | 0.00 | 48 | 1013.5 |
| 20260906002843 | 31 | 177 | 14.5 | 30.6 | 0.00 | 0.00 | 0.00 | 48 | 1013.5 |
| 20260906002540 | 31 | 175 | 14.5 | 30.6 | 0.00 | 0.00 | 0.00 | 47 | 1013.5 |
| 20260906002226 | 31 | 179 | 16.1 | 30.6 | 0.00 | 0.00 | 0.00 | 48 | 1013.6 |
| 20260906001924 | 31 | 172 | 17.7 | 30.6 | 0.00 | 0.00 | 0.00 | 48 | 1013.6 |
| 20260906001624 | 31 | 187 | 17.7 | 30.6 | 0.00 | 0.00 | 0.00 | 47 | 1013.6 |
| 20260906001318 | 31 | 176 | 17.7 | 29.0 | 0.00 | 0.00 | 0.00 | 47 | 1013.6 |
| 20260906001009 | 31 | 182 | 19.3 | 32.2 | 0.00 | 0.00 | 0.00 | 48 | 1013.7 |
| 20260906000704 | 32 | 178 | 19.3 | 32.2 | 0.00 | 0.00 | 0.00 | 47 | 1013.7 |
| 20260906000410 | 32 | 180 | 19.3 | 32.2 | 0.00 | 0.00 | 0.00 | 47 | 1013.7 |
| 20260906000109 | 32 | 190 | 20.9 | 33.8 | 0.00 | 0.00 | 0.00 | 47 | 1013.7 |
| 20260905235804 | 32 | 186 | 19.3 | 33.8 | 0.00 | 0.00 | 0.00 | 46 | 1013.6 |
| 20260905235459 | 32 | 184 | 19.3 | 33.8 | 0.00 | 0.00 | 0.00 | 46 | 1013.7 |
| 20260905235202 | 32 | 193 | 19.3 | 35.4 | 0.00 | 0.00 | 0.00 | 46 | 1013.6 |
| 20260905234906 | 32 | 182 | 19.3 | 35.4 | 0.00 | 0.00 | 0.00 | 45 | 1013.7 |
| 20260905234558 | 32 | 177 | 20.9 | 35.4 | 0.00 | 0.00 | 0.00 | 44 | 1013.7 |
| 20260905234246 | 32 | 180 | 22.5 | 35.4 | 0.00 | 0.00 | 0.00 | 44 | 1013.6 |
| 20260905233942 | 33 | 184 | 20.9 | 35.4 | 0.00 | 0.00 | 0.00 | 43 | 1013.5 |
| 20260905233645 | 33 | 181 | 19.3 | 35.4 | 0.00 | 0.00 | 0.00 | 43 | 1013.6 |
| 20260905233338 | 33 | 191 | 16.1 | 35.4 | 0.00 | 0.00 | 0.00 | 42 | 1013.4 |
| 20260905233029 | 33 | 172 | 16.1 | 32.2 | 0.00 | 0.00 | 0.00 | 42 | 1013.5 |
| 20260905232721 | 33 | 177 | 17.7 | 38.6 | 0.00 | 0.00 | 0.00 | 42 | 1013.4 |
| 20260905231953 | 34 | 165 | 20.9 | 38.6 | 0.00 | 0.00 | 0.00 | 41 | 1013.5 |
| 20260905231648 | 34 | 182 | 22.5 | 38.6 | 0.00 | 0.00 | 0.00 | 42 | 1013.5 |
| 20260905230510 | 34 | 171 | 20.9 | 37.0 | 0.00 | 0.00 | 0.00 | 42 | 1013.3 |
| 20260905230213 | 34 | 175 | 22.5 | 37.0 | 0.00 | 0.00 | 0.00 | 41 | 1013.3 |
| 20260905225900 | 34 | 181 | 20.9 | 37.0 | 0.00 | 0.00 | 0.00 | 41 | 1013.4 |
| 20260905225553 | 34 | 170 | 20.9 | 37.0 | 0.00 | 0.00 | 0.00 | 40 | 1013.2 |
| 20260905224826 | 34 | 182 | 17.7 | 35.4 | 0.00 | 0.00 | 0.00 | 41 | 1013.3 |
| 20260905224514 | 34 | 185 | 16.1 | 35.4 | 0.00 | 0.00 | 0.00 | 42 | 1013.0 |
| 20260905224205 | 34 | 179 | 16.1 | 32.2 | 0.00 | 0.00 | 0.00 | 43 | 1013.0 |
| 20260905223430 | 34 | 175 | 19.3 | 35.4 | 0.00 | 0.00 | 0.00 | 43 | 1013.0 |
| 20260905223129 | 34 | 178 | 19.3 | 35.4 | 0.00 | 0.00 | 0.00 | 42 | 1013.0 |
| 20260905222816 | 33 | 181 | 17.7 | 35.4 | 0.00 | 0.00 | 0.00 | 42 | 1012.9 |
| 20260905222512 | 33 | 171 | 19.3 | 35.4 | 0.00 | 0.00 | 0.00 | 43 | 1013.0 |
| 20260905222206 | 33 | 170 | 17.7 | 35.4 | 0.00 | 0.00 | 0.00 | 43 | 1013.0 |
| 20260905221909 | 33 | 184 | 17.7 | 35.4 | 0.00 | 0.00 | 0.00 | 43 | 1013.0 |
| 20260905221558 | 34 | 192 | 16.1 | 33.8 | 0.00 | 0.00 | 0.00 | 43 | 1013.0 |
| 20260905220848 | 34 | 172 | 12.9 | 29.0 | 0.00 | 0.00 | 0.00 | 43 | 1012.9 |
| 20260905220552 | 34 | 162 | 14.5 | 32.2 | 0.00 | 0.00 | 0.00 | 42 | 1012.8 |
| 20260905220254 | 34 | 168 | 16.1 | 32.2 | 0.00 | 0.00 | 0.00 | 43 | 1012.9 |
| 20260905215946 | 34 | 164 | 16.1 | 32.2 | 0.00 | 0.00 | 0.00 | 43 | 1012.9 |
| 20260905215646 | 34 | 173 | 17.7 | 43.5 | 0.00 | 0.00 | 0.00 | 43 | 1013.0 |
| 20260905215342 | 34 | 168 | 19.3 | 43.5 | 0.00 | 0.00 | 0.00 | 43 | 1013.1 |
| 20260905214602 | 34 | 188 | 19.3 | 43.5 | 0.00 | 0.00 | 0.00 | 42 | 1013.0 |
| 20260905214249 | 34 | 173 | 17.7 | 43.5 | 0.00 | 0.00 | 0.00 | 43 | 1013.1 |
| 20260905213949 | 34 | 170 | 19.3 | 43.5 | 0.00 | 0.00 | 0.00 | 43 | 1013.1 |
| 20260905213650 | 34 | 178 | 17.7 | 38.6 | 0.00 | 0.00 | 0.00 | 44 | 1013.0 |
| 20260905213352 | 34 | 160 | 17.7 | 38.6 | 0.00 | 0.00 | 0.00 | 43 | 1013.0 |
| 20260905213044 | 34 | 182 | 14.5 | 38.6 | 0.00 | 0.00 | 0.00 | 43 | 1013.1 |
| 20260905212732 | 34 | 180 | 11.3 | 27.4 | 0.00 | 0.00 | 0.00 | 44 | 1013.1 |
| 20260905212423 | 34 | 162 | 12.9 | 27.4 | 0.00 | 0.00 | 0.00 | 44 | 1013.1 |
| 20260905211253 | 33 | 164 | 14.5 | 27.4 | 0.00 | 0.00 | 0.00 | 45 | 1013.3 |
| 20260905210957 | 33 | 177 | 12.9 | 27.4 | 0.00 | 0.00 | 0.00 | 46 | 1013.3 |
| 20260905210653 | 33 | 182 | 12.9 | 27.4 | 0.00 | 0.00 | 0.00 | 45 | 1013.4 |
| 20260905210339 | 33 | 171 | 11.3 | 30.6 | 0.00 | 0.00 | 0.00 | 45 | 1013.5 |
| 20260905210032 | 33 | 165 | 14.5 | 30.6 | 0.00 | 0.00 | 0.00 | 45 | 1013.5 |
| 20260905205311 | 33 | 186 | 14.5 | 33.8 | 0.00 | 0.00 | 0.00 | 46 | 1013.7 |